CW3001 Weather Reports


Display with metric or nautical units.
time (UTC)temp
F
wind
direction
speed
MPH
gust
MPH
rain 1hr
in
rain 24hr
in
rain mn
in
humidity
%
barometer
mb
20260903230800 70 240 8.0 14.0 0.00 0.00 0.00 83 1016.6
20260903230258 70 237 6.0 13.0 0.00 0.00 0.00 83 1016.6
20260903225758 70 245 7.0 14.0 0.00 0.00 0.00 83 1016.5
20260903225256 70 228 6.0 14.0 0.00 0.00 0.00 83 1016.6
20260903225202 70 237 6.0 14.0 0.00 0.00 0.00 83 1016.8
20260903224256 70 233 9.0 14.0 0.00 0.00 0.00 83 1016.9
20260903223758 70 231 7.0 13.0 0.00 0.00 0.00 83 1016.9
20260903223258 69 234 6.0 14.0 0.00 0.00 0.00 83 1016.8
20260903222756 69 243 9.0 14.0 0.00 0.00 0.00 83 1016.9
20260903222257 69 213 5.0 12.0 0.00 0.00 0.00 83 1016.9
20260903222139 69 237 7.0 14.0 0.00 0.00 0.00 83 1016.8
20260903221256 69 209 8.0 15.0 0.00 0.00 0.00 83 1016.9
20260903221141 69 241 7.0 15.0 0.00 0.00 0.00 83 1016.9
20260903220255 70 255 9.0 15.0 0.00 0.00 0.00 83 1017.0
20260903220149 70 220 9.0 14.0 0.00 0.00 0.00 83 1017.1
20260903215258 70 230 7.0 15.0 0.00 0.00 0.00 83 1017.0
20260903214757 70 226 8.0 15.0 0.00 0.00 0.00 83 1017.1
20260903214638 70 252 9.0 13.0 0.00 0.00 0.00 83 1017.1
20260903213755 70 223 7.0 13.0 0.00 0.00 0.00 83 1017.1
20260903213257 70 185 5.0 12.0 0.00 0.00 0.00 83 1017.1
20260903212756 70 224 6.0 13.0 0.00 0.00 0.00 83 1017.2
20260903212256 70 247 7.0 14.0 0.00 0.00 0.00 83 1017.3
20260903211755 70 212 7.0 14.0 0.00 0.00 0.00 83 1017.6
20260903211256 69 219 8.0 14.0 0.00 0.00 0.00 83 1017.6
20260903210754 69 259 10.0 16.0 0.00 0.00 0.00 84 1017.7
20260903210532 69 235 6.0 15.0 0.00 0.00 0.00 84 1017.6
20260903210421 69 219 7.0 16.0 0.00 0.00 0.00 84 1017.6
20260903205254 69 202 8.0 15.0 0.00 0.00 0.00 84 1017.6
20260903204756 69 235 6.0 13.0 0.00 0.00 0.00 85 1017.6
20260903204253 69 247 7.0 13.0 0.00 0.00 0.00 85 1017.7
20260903203755 69 224 6.0 10.0 0.00 0.00 0.00 85 1017.7
20260903203255 69 207 5.0 10.0 0.00 0.00 0.00 85 1017.5
20260903202756 69 206 5.0 10.0 0.00 0.00 0.00 85 1017.5
20260903202254 69 220 5.0 10.0 0.00 0.00 0.00 85 1017.5
20260903201755 69 213 6.0 11.0 0.00 0.00 0.00 85 1017.6
20260903201256 69 219 5.0 11.0 0.00 0.00 0.00 85 1017.5
20260903200755 69 237 6.0 10.0 0.00 0.00 0.00 84 1017.7
20260903200253 69 230 5.0 10.0 0.00 0.00 0.00 84 1017.6
20260903195753 69 186 6.0 10.0 0.00 0.00 0.00 83 1017.7
20260903195255 70 190 5.0 11.0 0.00 0.00 0.00 83 1017.6
20260903194752 70 189 5.0 11.0 0.00 0.00 0.00 82 1017.6
20260903194646 70 213 7.0 12.0 0.00 0.00 0.00 81 1017.7
20260903194036 71 274 8.0 13.0 0.00 0.00 0.00 80 1017.6
20260903193923 70 250 7.0 13.0 0.00 0.00 0.00 81 1017.7
20260903192753 71 266 6.0 13.0 0.00 0.00 0.00 80 1017.7
20260903192253 71 221 8.0 13.0 0.00 0.00 0.00 79 1017.5
20260903192136 71 237 6.0 13.0 0.00 0.00 0.00 79 1017.7
20260903191252 71 212 6.0 15.0 0.00 0.00 0.00 78 1017.8
20260903190751 71 231 8.0 15.0 0.00 0.00 0.00 77 1017.7
20260903190252 71 247 7.0 10.0 0.00 0.00 0.00 77 1017.8
20260903185753 71 199 6.0 11.0 0.00 0.00 0.00 77 1017.7
20260903185253 71 248 7.0 11.0 0.00 0.00 0.00 77 1017.7
20260903185131 71 224 6.0 10.0 0.00 0.00 0.00 77 1017.6
20260903184251 71 217 7.0 11.0 0.00 0.00 0.00 77 1017.7
20260903183750 71 247 7.0 11.0 0.00 0.00 0.00 77 1017.6
20260903183633 71 214 6.0 10.0 0.00 0.00 0.00 77 1017.5
20260903182750 71 240 6.0 10.0 0.00 0.00 0.00 77 1017.5
20260903182252 71 213 5.0 6.0 0.00 0.00 0.00 76 1017.5
20260903181752 72 220 5.0 6.0 0.00 0.00 0.00 76 1017.7
20260903181252 72 223 5.0 7.0 0.00 0.00 0.00 76 1017.7
20260903180752 72 223 4.0 7.0 0.00 0.00 0.00 75 1017.7
20260903180632 72 227 4.0 5.0 0.00 0.00 0.00 75 1017.7
20260903175752 72 268 3.0 6.0 0.00 0.00 0.00 74 1017.7
20260903175251 72 271 3.0 7.0 0.00 0.00 0.00 74 1017.7
20260903174749 72 243 3.0 7.0 0.00 0.00 0.00 74 1017.6
20260903174251 72 240 3.0 5.0 0.00 0.00 0.00 74 1017.7
20260903173750 73 275 3.0 11.0 0.00 0.00 0.00 73 1017.7
20260903173637 73 233 7.0 11.0 0.00 0.00 0.00 73 1017.8
20260903173137 73 230 5.0 12.0 0.00 0.00 0.00 72 1017.7
20260903172249 73 227 6.0 12.0 0.00 0.00 0.00 72 1017.6
20260903171749 73 230 6.0 10.0 0.00 0.00 0.00 72 1017.8
20260903171248 73 293 4.0 13.0 0.00 0.00 0.00 72 1017.7
20260903170749 73 268 7.0 13.0 0.00 0.00 0.00 71 1017.6
20260903170635 73 268 4.0 12.0 0.00 0.00 0.00 71 1017.7
20260903165749 74 257 6.0 12.0 0.00 0.00 0.00 71 1017.7
20260903165248 74 268 4.0 11.0 0.00 0.00 0.00 70 1017.7
20260903164747 74 264 7.0 16.0 0.00 0.00 0.00 70 1017.8
20260903164250 74 271 6.0 16.0 0.00 0.00 0.00 70 1017.9
20260903163749 74 266 9.0 17.0 0.00 0.00 0.00 70 1018.0
20260903163249 74 281 8.0 17.0 0.00 0.00 0.00 70 1018.0
20260903162749 74 298 6.0 15.0 0.00 0.00 0.00 69 1017.6
20260903162250 74 269 7.0 15.0 0.00 0.00 0.00 68 1017.6
20260903161745 75 248 11.0 16.0 0.00 0.00 0.00 68 1017.7
20260903161244 75 217 11.0 16.0 0.00 0.00 0.00 67 1017.6
20260903160736 75 247 7.0 16.0 0.00 0.00 0.00 68 1017.7
20260903160236 75 252 10.0 16.0 0.00 0.00 0.00 67 1017.7
20260903155734 75 279 9.0 17.0 0.00 0.00 0.00 66 1017.8
20260903155231 75 212 8.0 17.0 0.00 0.00 0.00 67 1017.8
20260903154732 76 268 7.0 16.0 0.00 0.00 0.00 65 1017.9
20260903154231 76 266 8.0 20.0 0.00 0.00 0.00 67 1017.8
20260903153731 75 282 10.0 20.0 0.00 0.00 0.00 66 1017.8
20260903153231 75 271 11.0 17.0 0.00 0.00 0.00 67 1017.8
20260903152730 74 259 8.0 15.0 0.00 0.00 0.00 67 1017.7
20260903152230 75 271 10.0 20.0 0.00 0.00 0.00 67 1017.8
20260903152114 75 255 8.0 20.0 0.00 0.00 0.00 67 1017.9
20260903151232 75 252 8.0 19.0 0.00 0.00 0.00 68 1017.9
20260903150732 74 266 14.0 17.0 0.00 0.00 0.00 67 1018.0
20260903150231 75 279 11.0 16.0 0.00 0.00 0.00 67 1017.8
20260903145732 75 219 8.0 15.0 0.00 0.00 0.00 68 1017.9
20260903145613 74 251 8.0 18.0 0.00 0.00 0.00 68 1018.0
20260903144731 75 245 11.0 18.0 0.00 0.00 0.00 68 1018.0
20260903144231 75 210 6.0 15.0 0.00 0.00 0.00 69 1017.9
20260903144114 74 276 7.0 15.0 0.00 0.00 0.00 68 1017.8
20260903143230 75 266 7.0 15.0 0.00 0.00 0.00 67 1017.9
20260903142729 75 233 8.0 20.0 0.00 0.00 0.00 66 1017.9
20260903142229 76 286 14.0 20.0 0.00 0.00 0.00 65 1017.8
20260903141732 78 220 11.0 21.0 0.00 0.00 0.00 65 1017.7
20260903141233 77 254 15.0 21.0 0.00 0.00 0.00 67 1017.7
20260903140730 76 255 11.0 18.0 0.00 0.00 0.00 68 1017.9
20260903140618 75 274 9.0 18.0 0.00 0.00 0.00 69 1017.8
20260903135732 74 247 9.0 16.0 0.00 0.00 0.00 69 1017.9
20260903135231 74 224 8.0 17.0 0.00 0.00 0.00 69 1017.9
20260903134730 74 247 8.0 17.0 0.00 0.00 0.00 69 1017.9
20260903134627 74 321 10.0 17.0 0.00 0.00 0.00 69 1017.9
20260903133733 74 255 5.0 18.0 0.00 0.00 0.00 70 1017.9
20260903133232 74 269 10.0 18.0 0.00 0.00 0.00 69 1018.0
20260903132731 74 244 10.0 19.0 0.00 0.00 0.00 69 1017.9
20260903132229 75 257 8.0 19.0 0.00 0.00 0.00 69 1017.7
20260903131728 75 282 11.0 21.0 0.00 0.00 0.00 69 1017.7
20260903131228 75 272 13.0 21.0 0.00 0.00 0.00 68 1017.8
20260903130728 75 203 9.0 18.0 0.00 0.00 0.00 69 1017.7
20260903130226 74 278 7.0 14.0 0.00 0.00 0.00 72 1017.7
20260903125725 73 272 5.0 20.0 0.00 0.00 0.00 72 1017.8
20260903125225 73 243 13.0 20.0 0.00 0.00 0.00 71 1017.9
20260903124728 74 255 9.0 18.0 0.00 0.00 0.00 73 1017.8
20260903124225 73 271 6.0 17.0 0.00 0.00 0.00 74 1017.7
20260903123722 73 252 6.0 20.0 0.00 0.00 0.00 73 1017.7
20260903123221 73 230 10.0 20.0 0.00 0.00 0.00 73 1017.9
20260903122723 73 252 8.0 20.0 0.00 0.00 0.00 74 1017.8
20260903122220 73 285 13.0 20.0 0.00 0.00 0.00 72 1017.8
20260903121720 73 258 10.0 19.0 0.00 0.00 0.00 71 1017.7
20260903121218 74 254 12.0 19.0 0.00 0.00 0.00 70 1017.6
20260903120718 73 255 8.0 18.0 0.00 0.00 0.00 73 1017.4
20260903120217 72 255 10.0 24.0 0.00 0.00 0.00 73 1017.7
20260903115722 72 259 10.0 24.0 0.00 0.00 0.00 73 1017.8
20260903115214 72 240 16.0 23.0 0.00 0.00 0.00 72 1017.8
20260903114719 73 272 15.0 23.0 0.00 0.00 0.00 72 1017.9
20260903114553 74 254 12.0 26.0 0.00 0.00 0.00 72 1017.9
20260903113710 74 237 11.0 26.0 0.00 0.00 0.00 73 1017.8
20260903113211 73 262 15.0 21.0 0.00 0.00 0.00 74 1018.0
20260903112712 73 245 8.0 18.0 0.00 0.00 0.00 77 1018.0
20260903112204 72 275 8.0 18.0 0.00 0.00 0.00 78 1018.0
20260903111704 71 259 11.0 23.0 0.00 0.00 0.00 79 1018.0
20260903111204 70 250 11.0 23.0 0.00 0.00 0.00 79 1017.9
20260903110954 70 268 6.0 19.0 0.00 0.00 0.00 82 1018.0
20260903110833 70 241 7.0 17.0 0.00 0.00 0.00 81 1018.0
20260903105705 69 200 9.0 19.0 0.00 0.00 0.00 81 1018.0
20260903105204 69 271 9.0 17.0 0.00 0.00 0.00 82 1018.0
20260903105056 69 243 10.0 16.0 0.00 0.00 0.00 84 1018.0
20260903104204 68 265 8.0 15.0 0.00 0.00 0.00 85 1018.0
20260903103707 68 292 9.0 15.0 0.00 0.00 0.00 86 1018.1
20260903103204 68 269 7.0 14.0 0.00 0.00 0.00 86 1018.1
20260903102704 67 257 9.0 14.0 0.00 0.00 0.00 86 1018.1
20260903102206 67 279 8.0 13.0 0.00 0.00 0.00 86 1018.1
20260903101717 68 257 8.0 14.0 0.00 0.00 0.00 86 1018.0
20260903101216 68 278 8.0 16.0 0.00 0.00 0.00 85 1018.1
20260903100716 68 338 9.0 16.0 0.00 0.00 0.00 84 1018.0
20260903100202 68 258 7.0 18.0 0.00 0.00 0.00 84 1017.9
20260903095704 68 269 7.0 18.0 0.00 0.00 0.00 84 1017.8
20260903095204 68 216 11.0 15.0 0.00 0.00 0.00 84 1017.7
20260903094704 68 178 6.0 15.0 0.00 0.00 0.00 83 1017.8
20260903094203 68 223 7.0 18.0 0.00 0.00 0.00 83 1017.8
20260903093704 68 248 10.0 18.0 0.00 0.00 0.00 84 1017.8
20260903093216 67 221 7.0 15.0 0.00 0.00 0.00 83 1017.8
20260903092706 67 250 8.0 14.0 0.00 0.00 0.00 83 1017.7
20260903092205 67 285 9.0 14.0 0.00 0.00 0.00 83 1017.7
20260903091703 67 244 9.0 14.0 0.00 0.00 0.00 82 1017.5
20260903091204 67 217 7.0 14.0 0.00 0.00 0.00 82 1017.4
20260903090704 67 196 8.0 14.0 0.00 0.00 0.00 83 1017.4
20260903090203 67 255 10.0 14.0 0.00 0.00 0.00 83 1017.4
20260903085706 67 230 10.0 18.0 0.00 0.00 0.00 82 1017.3
20260903085204 67 264 9.0 18.0 0.00 0.00 0.00 82 1017.3
20260903084703 67 237 7.0 15.0 0.00 0.00 0.00 82 1017.4
20260903084203 67 250 10.0 16.0 0.00 0.00 0.00 82 1017.3
20260903083717 67 206 7.0 19.0 0.00 0.00 0.00 82 1017.2
20260903083159 67 228 11.0 19.0 0.00 0.00 0.00 83 1017.1
20260903082701 67 243 8.0 15.0 0.00 0.00 0.00 84 1017.0
20260903082158 66 220 11.0 15.0 0.00 0.00 0.00 84 1017.0
20260903081701 66 220 7.0 13.0 0.00 0.00 0.00 84 1016.9
20260903081158 66 217 9.0 13.0 0.00 0.00 0.00 85 1017.2
20260903080659 66 241 6.0 13.0 0.00 0.00 0.00 85 1017.3
20260903080158 66 248 6.0 13.0 0.00 0.00 0.00 85 1017.4
20260903080046 66 257 4.0 10.0 0.00 0.00 0.00 85 1017.4
20260903075155 66 230 6.0 13.0 0.00 0.00 0.00 84 1017.4
20260903074653 66 230 8.0 13.0 0.00 0.00 0.00 84 1017.5
20260903074153 66 214 8.0 13.0 0.00 0.00 0.00 84 1017.3
20260903073655 66 216 6.0 16.0 0.00 0.00 0.00 84 1017.4
20260903073150 66 247 8.0 16.0 0.00 0.00 0.00 83 1017.3
20260903072651 66 254 7.0 15.0 0.00 0.00 0.00 83 1017.5
20260903072539 66 281 4.0 15.0 0.00 0.00 0.00 83 1017.4
20260903071653 66 279 6.0 16.0 0.00 0.00 0.00 81 1017.3
20260903071152 66 196 9.0 16.0 0.00 0.00 0.00 81 1017.3
20260903070648 66 258 5.0 14.0 0.00 0.00 0.00 81 1017.3
20260903070538 66 213 8.0 12.0 0.00 0.00 0.00 80 1017.2
20260903065648 66 216 6.0 13.0 0.00 0.00 0.00 80 1017.1
20260903065146 66 238 6.0 14.0 0.00 0.00 0.00 80 1017.1
20260903064648 66 212 9.0 14.0 0.00 0.00 0.00 80 1017.1
20260903064149 66 203 5.0 13.0 0.00 0.00 0.00 80 1017.1
20260903063648 66 227 7.0 13.0 0.00 0.00 0.00 79 1017.2
20260903063145 66 228 6.0 13.0 0.00 0.00 0.00 79 1017.0
20260903062646 66 248 9.0 11.0 0.00 0.00 0.00 79 1016.9
20260903062145 0 0.0 0.0 0.00 0.00 0.00
20260903061643 0 0.0 0.0 0.00 0.00 0.00
20260903061147 0 0.0 0.0 0.00 0.00 0.00
20260903060634 0 0.0 0.0 0.00 0.00 0.00
20260903060132 0 0.0 12.0 0.00 0.00 0.00
20260903055636 66 231 8.0 12.0 0.00 0.01 0.00 78 1016.7
20260903055453 66 241 7.0 12.0 0.00 0.01 0.00 78 1016.8
20260903054627 66 245 7.0 12.0 0.00 0.01 0.00 78 1016.7
20260903054129 66 223 8.0 15.0 0.00 0.01 0.00 78 1016.6
20260903053626 66 207 8.0 15.0 0.00 0.01 0.00 77 1016.5
20260903053407 66 248 10.0 15.0 0.00 0.01 0.00 77 1017.0
20260903053255 66 241 8.0 15.0 0.00 0.01 0.00 77 1016.7
20260903052127 66 195 8.0 13.0 0.00 0.01 0.00 77 1016.9
20260903052008 66 254 6.0 13.0 0.00 0.01 0.00 76 1016.7
20260903051127 66 219 8.0 13.0 0.00 0.01 0.00 76 1016.8
20260903050639 66 176 7.0 13.0 0.00 0.01 0.00 76 1016.8
20260903050128 66 220 7.0 11.0 0.00 0.01 0.00 75 1017.0
20260903045626 66 228 6.0 12.0 0.00 0.01 0.00 75 1016.8
20260903045127 66 216 7.0 15.0 0.00 0.01 0.00 75 1016.7
20260903044625 66 214 8.0 15.0 0.00 0.01 0.00 75 1016.5
20260903044506 66 234 9.0 13.0 0.00 0.01 0.00 74 1016.6
20260903044008 66 204 7.0 14.0 0.00 0.01 0.00 74 1016.6
20260903043125 66 266 8.0 14.0 0.00 0.01 0.00 74 1016.7
20260903042625 66 217 9.0 13.0 0.00 0.01 0.00 74 1016.9
20260903042125 66 247 8.0 13.0 0.00 0.01 0.00 74 1016.9
20260903041623 66 228 6.0 15.0 0.00 0.01 0.00 73 1016.9
20260903041511 67 216 8.0 15.0 0.00 0.01 0.00 73 1017.0
20260903040624 67 203 7.0 13.0 0.00 0.01 0.00 73 1017.0
20260903040126 67 233 7.0 13.0 0.00 0.01 0.00 73 1017.1
20260903035622 67 224 7.0 13.0 0.00 0.01 0.00 73 1017.2
20260903035506 67 200 8.0 14.0 0.00 0.01 0.00 73 1017.2
20260903034623 67 258 7.0 14.0 0.00 0.01 0.00 73 1017.3
20260903034124 66 228 8.0 15.0 0.00 0.01 0.00 73 1017.3
20260903033623 66 250 7.0 15.0 0.00 0.01 0.00 73 1017.2
20260903033508 66 243 8.0 14.0 0.00 0.01 0.00 72 1017.1
20260903032625 66 220 8.0 14.0 0.00 0.01 0.00 72 1017.0
20260903032124 66 231 8.0 13.0 0.00 0.01 0.00 72 1017.1
20260903031623 66 219 8.0 13.0 0.00 0.01 0.00 72 1017.2
20260903031124 65 221 7.0 12.0 0.00 0.01 0.00 72 1017.2
20260903031001 65 237 5.0 11.0 0.00 0.01 0.00 72 1017.3
20260903030122 65 195 5.0 10.0 0.00 0.01 0.00 72 1017.3
20260903025622 65 213 4.0 9.0 0.00 0.01 0.00 72 1017.4
20260903025122 65 213 5.0 9.0 0.00 0.01 0.00 73 1017.4
20260903024622 65 199 2.0 7.0 0.00 0.01 0.00 73 1017.4
20260903024121 65 204 4.0 7.0 0.00 0.01 0.00 73 1017.5
20260903023621 65 193 4.0 5.0 0.00 0.01 0.00 73 1017.7
20260903023121 65 226 3.0 5.0 0.00 0.01 0.00 74 1017.8
20260903022622 65 227 3.0 5.0 0.00 0.01 0.00 74 1017.8
20260903022121 65 226 2.0 6.0 0.00 0.01 0.00 74 1017.7
20260903021621 65 226 4.0 6.0 0.00 0.01 0.00 74 1017.8
20260903021122 65 213 3.0 5.0 0.00 0.01 0.00 74 1017.7
20260903020620 65 206 3.0 5.0 0.00 0.01 0.00 74 1017.6
20260903020120 65 212 0.0 0.0 0.00 0.01 0.00 75 1017.8
20260903015619 64 216 0.0 0.0 0.00 0.01 0.00 75 1017.8
20260903015120 65 219 0.0 0.0 0.00 0.01 0.00 75 1017.7
20260903014620 65 220 0.0 3.0 0.00 0.01 0.00 75 1017.7
20260903014120 65 220 0.0 3.0 0.00 0.01 0.00 75 1017.8
20260903013956 65 220 2.0 4.0 0.00 0.01 0.00 74 1017.8
20260903013119 65 221 2.0 4.0 0.00 0.01 0.00 74 1017.9
20260903012618 65 224 3.0 5.0 0.00 0.01 0.00 74 1018.0
20260903012530 65 231 4.0 5.0 0.00 0.01 0.00 74 1018.1
20260903011617 65 221 3.0 5.0 0.00 0.01 0.00 74 1018.1
20260903011117 65 224 4.0 6.0 0.00 0.01 0.00 74 1018.2
20260903010630 65 219 4.0 10.0 0.00 0.01 0.00 74 1018.2
20260903010131 65 230 3.0 10.0 0.00 0.01 0.00 74 1018.1
20260903005618 65 226 5.0 9.0 0.00 0.01 0.00 74 1018.2
20260903005119 65 210 5.0 9.0 0.00 0.01 0.00 74 1018.5
20260903004618 65 204 5.0 9.0 0.00 0.01 0.00 74 1018.5
20260903004118 65 245 4.0 7.0 0.00 0.01 0.00 73 1018.5
20260903003616 65 217 3.0 7.0 0.00 0.01 0.00 73 1018.5
20260903003116 65 190 5.0 7.0 0.00 0.01 0.00 73 1018.5
20260903002618 65 217 5.0 10.0 0.00 0.01 0.00 73 1018.5
20260903002505 65 220 5.0 10.0 0.00 0.01 0.00 72 1018.5
20260903001620 66 210 5.0 12.0 0.00 0.01 0.00 72 1018.5
20260903001118 66 213 7.0 15.0 0.00 0.01 0.00 72 1018.7
20260903000616 65 197 7.0 17.0 0.00 0.01 0.00 71 1018.6
20260903000251 65 212 7.0 12.0 0.00 0.01 0.00 71 1018.8
20260903000208 65 197 10.0 17.0 0.00 0.01 0.00 71 1018.8
20260902235747 65 226 7.0 16.0 0.00 0.01 0.00 71 1018.9
20260902235004 65 204 5.0 9.0 0.00 0.01 0.00 72 1018.9
20260902234115 65 207 5.0 9.0 0.00 0.01 0.00 71 1019.0
20260902233616 65 189 5.0 7.0 0.00 0.01 0.00 71 1019.1
20260902233115 65 189 5.0 9.0 0.00 0.01 0.00 71 1019.0
20260902232616 65 189 5.0 9.0 0.00 0.01 0.00 70 1019.0
20260902232115 65 189 4.0 9.0 0.00 0.01 0.00 70 1019.1
20260902231615 65 192 4.0 9.0 0.00 0.01 0.00 70 1019.0
20260902231505 65 190 4.0 9.0 0.00 0.01 0.00 70 1019.2